Location: McMath-Hulbert Observatory
(42.6964°N, 83.3187°W)
Time: 22:24:51
(UTC-04:00)

Daily predictions for brighter satellites

Satellite Brightness Start Highest point End
(mag) Time Altitude Azimuth Time Altitude Azimuth Time Altitude Azimuth
CENTAUR R/B 3.3 21:19:28 10° NW 21:27:24 79° WSW 21:35:51 10° SSE
Resurs 01 Rocket 2.8 21:24:14 10° S 21:28:28 44° W 21:32:43 10° NNW
NOSS 2-2 (D) 3.7 21:27:04 10° SW 21:31:04 77° NW 21:35:43 10° NNE
SPOT 5 4.4 21:31:18 10° ESE 21:34:09 18° ENE 21:37:03 10° NNE
Meteor 1-29 3.1 21:31:11 10° NNE 21:34:27 48° E 21:37:43 10° S
USA 40 PKM 4.3 21:32:00 10° SW 21:35:22 79° SE 21:39:57 10° NE
Nadezhda 1 Rocket 4.3 21:31:10 10° SSE 21:37:16 51° E 21:43:27 10° NNE
COSMOS 2406 3.3 21:36:39 10° SSW 21:42:23 89° ESE 21:48:08 10° NNE
Cosmos 2082 Rocket 3.8 21:42:29 10° SE 21:45:28 15° E 21:48:28 10° ENE
Cosmos 1743 3.2 21:45:14 10° NNW 21:49:05 63° W 21:52:56 10° S
Meteor 1-13 Rocket 4.5 21:43:36 10° S 21:49:33 83° W 21:55:28 10° N
Cosmos 2154 Rocket 4.4 21:45:14 10° N 21:51:24 49° ENE 21:57:31 10° SSE
CZ-4B DEB 2.8 21:49:31 10° S 21:52:29 70° W 21:55:29 10° NNW
Cosmos 2112 Rocket 4.0 21:49:26 10° SSW 21:54:40 86° ESE 21:59:53 10° NNE
Cosmos 1238 Rocket 4.1 21:49:57 10° S 21:56:37 69° E 22:03:01 10° NNE
Cosmos 1346 3.9 21:55:31 10° SSW 21:58:12 46° WNW 22:00:54 10° N
ISS -3.8 21:55:04 10° WSW 21:58:21 84° NW 22:01:40 10° NE
Aureole 3 Rocket 3.7 21:52:20 10° S 21:58:35 82° W 22:03:01 10° N
ASTEX 1 3.4 21:56:02 10° SSE 22:00:54 71° E 22:05:47 10° N
Cosmos 1624 Rocket 4.4 21:55:55 10° N 22:01:05 52° ENE 22:05:37 13° SE
OAO 2 Rocket 4.1 21:56:59 10° WSW 22:01:25 33° S 22:05:08 14° SE
H-2A R/B 3.3 21:59:49 12° ESE 22:03:29 25° ENE 22:07:33 10° N
Cosmos 1697 Rocket 4.3 22:00:28 10° N 22:04:47 22° NE 22:09:04 10° E
Helios 1A 4.1 22:00:58 10° S 22:04:59 43° W 22:09:01 10° NNW
Cosmos 2228 4.4 22:03:33 10° NNE 22:07:00 23° ENE 22:09:27 15° ESE
SL-27 R/B 2.9 22:03:46 10° SSW 22:07:24 68° WNW 22:11:03 10° NNE
Cosmos 1939 Rocket 3.8 22:05:47 10° S 22:09:28 43° W 22:13:12 10° NNW
Cosmos 921 Rocket 3.9 22:05:24 10° N 22:09:34 36° ENE 22:12:33 16° SE
YAOGAN 6 2.7 22:06:48 10° S 22:10:16 69° WSW 22:13:47 10° NNW
Cosmos 1666 3.5 22:08:03 10° NNW 22:11:41 49° W 22:15:18 10° S
Meteor 2-9 Rocket 4.3 22:07:29 10° NNW 22:12:59 79° W 22:18:37 10° S
SL-08 RB Rocket 4.4 22:12:25 16° SE 22:15:30 37° ENE 22:19:38 10° N
Cosmos 1680 Rocket 4.4 22:12:13 10° SW 22:17:18 52° WNW 22:22:24 10° N
Okean 1-7 Rocket 3.7 22:13:22 10° S 22:17:49 82° W 22:22:22 10° N
Cosmos 1892 Rocket 4.0 22:15:22 14° SSE 22:18:50 42° E 22:23:01 10° NNE
Intercosmos 24 3.6 22:16:12 10° N 22:20:05 88° E 22:22:54 15° S
Cosmos 2056 Rocket 3.5 22:15:15 10° NNW 22:20:26 71° ENE 22:24:17 18° SSE
Cosmos 1833 Rocket 3.6 22:19:02 16° SSE 22:22:30 28° ESE 22:27:12 10° NE
Cosmos 1437 Rocket 2.7 22:18:39 10° N 22:22:30 75° E 22:25:17 18° SSE
Cosmos 2341 Rocket 4.1 22:17:58 10° N 22:24:17 64° E 22:29:27 16° SSE
Helios 1B rocket 4.4 22:23:13 10° N 22:26:53 32° WNW 22:30:33 10° SW
MetOp-A 4.1 22:23:24 14° SSE 22:28:02 87° ENE 22:33:26 10° NNW
Meteor 2-4 Rocket 4.4 22:24:29 10° SSW 22:30:02 57° WNW 22:35:47 10° N
Cosmos 1606 Rocket 3.4 22:25:51 10° N 22:30:11 80° E 22:33:14 19° SSE
PSLV R/B 4.1 22:29:23 10° W 22:32:12 31° SSW 22:32:59 27° S
Cosmos 839 Rocket 4.4 22:27:29 10° NNW 22:34:03 78° ENE 22:39:48 20° SE
Cosmos 405 4.4 22:34:02 10° NNW 22:37:19 35° W 22:40:27 11° SSW
Cosmos 1726 Rocket 3.4 22:35:35 10° N 22:39:56 84° E 22:42:37 22° S
Cosmos 1025 Rocket 3.9 22:37:59 10° SSW 22:42:06 48° WNW 22:46:15 10° N
USA 245 2.0 22:42:20 51° SSE 22:42:51 84° ENE 22:45:10 10° NNW
Cosmos 1515 3.6 22:40:58 18° S 22:43:42 87° E 22:47:32 10° N
COSMOS 2487 2.5 22:43:44 26° S 22:45:32 59° ESE 22:49:04 10° NNE
NOSS 8 (F) 4.3 22:45:33 10° SSW 22:49:04 82° SE 22:52:42 10° NE
Iridium 43 4.0 22:48:16 10° N 22:50:04 44° NE 22:50:04 44° NE
CZ-3A R/B 0.1 22:47:20 10° SW 22:50:16 59° SW 22:50:16 59° SW
Cosmos 1452 Rocket 3.8 22:47:12 10° NNW 22:52:24 57° ENE 22:55:04 28° SE
Cosmos 1980 Rocket 3.4 22:48:17 10° N 22:53:15 30° NE 22:56:23 18° ESE
Cosmos 2058 Rocket 3.0 22:50:05 10° N 22:54:32 88° E 22:56:51 28° S
Landsat 7 4.1 22:52:27 28° SE 22:54:41 54° ENE 22:59:20 10° N
SPOT 1/Viking Rocket 3.5 22:51:40 25° SSE 22:54:44 82° ENE 22:59:55 10° NNW
YAOGAN 11 4.4 22:52:10 21° S 22:54:54 59° WSW 22:59:12 10° NNW
Cosmos 2181 Rocket 4.0 22:49:25 12° S 22:55:23 88° E 23:01:42 10° N
Tiangong 2 1.0 22:56:50 10° W 23:00:01 87° N 23:00:58 42° E
ARGOS 3.5 22:58:32 20° S 23:02:17 63° WSW 23:07:42 10° NNW
Cosmos 2322 Rocket 4.4 22:59:50 10° N 23:03:13 16° NE 23:06:35 10° E
Lacrosse 5 rocket 4.2 23:00:50 10° NNW 23:03:47 16° NNE 23:06:46 10° NE
Nimbus 7 Rocket 4.4 22:58:17 10° NNE 23:04:23 87° ESE 23:09:45 14° SSW
ERS-1 Rocket 4.5 23:01:32 10° SSW 23:05:57 31° W 23:10:23 10° NW
USA 267 4.5 23:01:56 10° ENE 23:05:41 20° ESE 23:05:41 20° ESE
Terra 2.1 23:07:57 34° SE 23:09:44 53° ENE 23:14:22 10° N
NOSS 8 (H) 4.3 23:08:24 22° SW 23:10:26 89° WNW 23:14:02 10° NE
SPOT 5 3.4 23:09:28 22° SSW 23:11:53 44° W 23:16:05 10° NNW
H-2A R/B 2.3 23:15:12 39° SE 23:16:38 59° ENE 23:21:06 10° N
Cosmos 1812 Rocket 4.1 23:13:11 10° N 23:17:31 46° ENE 23:18:32 39° ESE
Cosmos 864 Rocket 4.5 23:11:23 10° N 23:17:41 72° E 23:20:41 33° SSE
IGS 5A 3.6 23:18:14 45° SE 23:19:14 60° ENE 23:23:21 10° N
Cosmos 468 4.5 23:17:25 32° S 23:19:46 64° ESE 23:25:01 10° NNE
Meteor 2-21 4.3 23:15:56 10° N 23:22:01 83° E 23:24:52 34° SSE
PSLV R/B 4.2 23:24:25 33° NE 23:24:25 33° NE 23:26:27 10° N
Meteor 2-21 Rocket 4.4 23:20:01 10° N 23:26:05 72° E 23:28:37 36° SSE
Cosmos 1626 Rocket 3.4 23:26:20 46° S 23:27:34 85° E 23:31:55 10° N
Spot 4 4.5 23:26:55 35° ESE 23:28:12 43° ENE 23:32:46 10° N
Cosmos 2278 4.4 23:23:09 10° NW 23:28:34 46° WSW 23:31:16 27° SSW
Cosmos 2082 Rocket 2.3 23:23:35 12° SSW 23:28:48 79° WNW 23:34:30 10° NNE
ATLAS CENTAUR R/B 3.7 23:27:18 10° NNE 23:28:53 12° NE 23:30:27 10° ENE
Cosmos 1805 4.2 23:27:14 10° N 23:30:47 32° ENE 23:30:53 32° E
SL-19 R/B 4.0 23:26:06 10° NNE 23:31:26 67° ESE 23:33:15 40° S
Meteor 1-22 Rocket 4.0 23:27:21 10° N 23:32:41 89° E 23:34:40 41° S
SL-8 Rocket 4.4 23:28:44 10° NNW 23:34:53 60° W 23:38:28 26° SSW
ISS -1.1 23:32:34 10° WNW 23:35:14 22° NNW 23:37:53 10° NE
USA 229 DEB 4.0 23:28:16 10° NNW 23:35:22 65° NE 23:39:05 31° ESE
USA 229 4.0 23:28:22 10° NNW 23:35:28 65° NE 23:39:12 30° ESE
Cosmos 2366 rocket 4.0 23:34:34 10° NNW 23:40:44 73° W 23:43:33 34° S
Cosmos 1825 Rocket 4.3 23:41:26 36° E 23:41:26 36° E 23:45:17 10° NNE
H-2A R/B 2.9 23:40:27 26° SSW 23:42:39 40° W 23:47:24 10° NNW
Cosmos 158 Rocket 3.9 23:46:05 46° S 23:47:39 74° ESE 23:53:02 10° NNE
Meteor 1-4 Rocket 3.6 23:45:06 10° NNW 23:48:25 35° W 23:48:46 34° WSW
Cosmos 1697 Rocket 2.9 23:43:40 10° NNW 23:49:12 63° WSW 23:50:57 42° S
Cosmos 2360 4.3 23:44:22 10° NNW 23:50:05 68° ENE 23:51:48 45° SE
CZ-4C R/B 3.6 23:52:04 49° NE 23:52:04 49° NE 23:55:17 10° N
